#timestamp,LO_Frequency,Hit,StdDev 
1705496415.8,286046998.8,N
1705496435.6,286046998.6,N
1705496455.5,286046998.1,N
1705496475.3,286046998.3,N
1705496495.1,286046998.2,N
1705496515.9,286046998.7,N
1705496535.7,286046998.5,N
1705496555.6,286047001.1,N
1705496575.4,286047000.6,N
1705496595.2,286046999.8,N
1705496615.1,286047000.0,N
1705496616.0,286047000.0,N
1705496635.8,286047002.2,N
1705496655.7,286047001.8,N
1705496675.5,286047001.9,N
1705496695.3,286047002.1,N
1705496715.2,286047002.6,N
1705496735.0,286046999.8,N
1705496735.9,286046999.8,N
1705496755.7,286047000.3,N
1705496775.6,286047002.7,N
1705496795.4,286047002.6,N
1705496815.3,286047002.3,N
1705496835.1,286046999.8,N
1705496836.0,286046999.8,N
1705496855.8,286047002.6,N
1705496875.7,286047002.6,N
1705496895.5,286047000.9,N
1705496915.3,286047002.1,N
1705496935.2,286047002.2,N
1705496955.0,286047002.4,N
1705496955.9,286047002.4,N
1705496975.8,286047000.1,N
1705496995.6,286046999.7,N
1705497015.4,286047000.5,N
1705497035.3,286047002.5,N
1705497055.1,286047001.8,N
1705497075.9,286047004.3,Y
1705497095.7,286047002.3,P
1705497115.5,286047001.7,P
1705497135.4,286047002.5,P
1705497155.2,286047000.1,N
1705497175.0,286047000.0,N
1705497175.9,286047000.0,N
1705497195.8,286047002.3,N
1705497215.6,286046999.8,N
1705497235.5,286047000.2,N
1705497255.3,286046999.8,N
1705497275.1,286046999.8,N
1705497295.9,286047002.6,N
1705497315.7,286047004.2,Y
1705497335.5,286047002.2,P
1705497355.4,286047000.5,N
1705497375.2,286047000.9,N
1705497395.1,286047001.0,N
1705497396.0,286047001.0,N
1705497415.8,286046998.6,N
1705497435.6,286046998.2,N
1705497455.5,286046999.5,N
1705497475.3,286046999.4,N
1705497495.1,286046999.5,N
1705497515.9,286046999.5,N
1705497535.7,286046999.1,N
1705497555.6,286046997.3,N
1705497575.4,286046999.1,N
1705497595.2,286046999.0,N
1705497615.1,286046996.6,N
1705497616.0,286046996.6,N
1705497635.8,286046997.2,N
1705497655.7,286046995.0,Y
1705497675.5,286046996.9,P
1705497695.4,286046996.8,N
1705497715.2,286046997.0,N
1705497735.0,286046996.6,Y
1705497735.9,286046996.6,P
1705497755.8,286047000.8,N
1705497775.6,286047000.1,N
1705497795.5,286047002.7,N
1705497815.3,286047002.1,N
1705497835.1,286046999.8,N
1705497855.9,286046999.8,N
1705497875.7,286047002.4,N
1705497895.6,286047002.3,N
1705497915.4,286047000.2,N
1705497935.2,286046999.7,N
1705497955.1,286046999.9,N
1705497956.0,286046999.9,N
1705497975.8,286046999.7,N
1705497995.6,286047002.1,N
1705498015.5,286047001.6,N
1705498035.3,286047002.3,N
1705498055.2,286047000.0,N
1705498075.9,286047000.1,N
1705498095.7,286047000.5,N
1705498115.6,286046999.9,N
1705498135.7,286047000.7,N
1705498155.6,286046998.4,N
1705498175.4,286047000.8,N
1705498195.3,286046998.8,N
1705498215.1,286046998.6,N
1705498235.8,286046999.9,N
1705498255.7,286047000.4,N
1705498275.5,286047001.9,N
1705498295.4,286047001.9,N
1705498315.2,286046999.7,N
1705498335.0,286047000.0,N
1705498335.9,286047000.0,N
1705498355.8,286046999.8,N
1705498375.6,286047001.3,N
1705498395.5,286047004.3,Y
1705498415.3,286047004.3,P
1705498435.1,286047003.5,N
1705498455.9,286047003.7,N
1705498475.7,286047003.8,N
1705498495.5,286047003.8,N
1705498515.4,286047004.4,Y
1705498535.2,286046999.3,P
1705498555.1,286046996.6,N
1705498556.0,286046996.6,N
1705498575.8,286046998.7,N
1705498595.6,286046998.6,N
1705498615.5,286046998.6,N
1705498635.3,286046998.8,N
1705498655.1,286046998.2,N
1705498675.9,286047000.8,N
1705498695.7,286046998.2,N
1705498715.6,286047001.2,N
1705498735.4,286046999.4,N
1705498755.2,286046996.6,N
1705498775.1,286046999.3,N
1705498776.0,286046999.3,N
1705498795.8,286047000.9,N
1705498815.7,286047001.0,N
1705498835.5,286046998.6,N
1705498855.3,286046998.1,N
1705498875.2,286046998.5,N
1705498895.9,286046999.0,N
1705498915.7,286046999.4,N
1705498935.6,286047001.2,N
1705498955.4,286047000.8,N
1705498975.2,286046998.8,N
1705498995.1,286046999.5,N
1705498996.0,286046999.5,N
1705499015.8,286046998.6,N
1705499035.7,286047001.0,N
1705499055.5,286047000.7,N
1705499075.3,286046998.8,N
1705499095.2,286046996.5,N
1705499115.0,286046999.4,N
1705499115.9,286046999.4,N
1705499135.8,286046996.9,N
1705499155.6,286046998.8,N
1705499175.4,286046996.5,N
1705499195.3,286046998.9,N
1705499215.1,286047001.2,N
1705499235.9,286046998.3,N
1705499255.7,286047000.6,N
1705499275.5,286047000.7,N
1705499295.4,286046998.2,N
1705499315.2,286046999.1,N
1705499335.0,286046999.5,N
1705499336.0,286046999.5,N
1705499355.8,286046998.8,N
1705499375.6,286046999.1,N
1705499395.5,286046999.1,N
1705499415.3,286046998.4,N
1705499435.2,286047001.1,N
1705499455.9,286046998.7,N
1705499475.7,286046999.6,N
1705499495.6,286046997.6,N
1705499515.4,286046997.5,N
1705499535.2,286046997.6,N
1705499555.1,286046997.9,N
1705499556.0,286046997.9,N
1705499575.8,286046997.2,N
1705499595.7,286046997.7,N
1705499615.5,286046999.6,N
1705499635.3,286046998.4,N
1705499655.2,286046999.3,N
1705499675.0,286046998.1,N
1705499675.9,286046998.1,N
1705499695.8,286046998.2,N
1705499715.6,286046999.6,N
1705499735.4,286046997.3,N
1705499755.3,286046996.7,Y
1705499775.1,286046998.5,P
1705499795.8,286047000.0,N
1705499815.7,286047002.7,P
1705499835.5,286047002.5,N
1705499855.4,286046999.7,N
1705499875.2,286047000.7,N
1705499895.0,286046998.2,N
1705499895.9,286046998.2,N
1705499915.8,286046999.7,N
1705499935.6,286047000.3,N
1705499955.5,286046999.9,N
1705499975.3,286047001.1,N
1705499995.1,286046998.6,N
